Wind_Speed
31 32 32 34 32 29 30 29 29 29 31 29 31 32 32 38 38 38 40 36 38 41 44 44 44 44 45 43 42 37 34 33 33 34 32 33 29 28 25 26 22 23 25
32 32 35 30 28 30 29 28 29 29 30 30 29 30 31 34 37 39 41 38 41 39 45 44 45 45 45 44 42 38 34 32 31 31 27 27 26 26 32 31 30 27 30
31 33 35 31 29 30 28 20 22 26 28 32 31 31 31 33 35 38 40 42 42 39 40 44 43 42 43 43 40 37 32 28 25 26 25 28 26 30 32 37 38 38 39
32 36 35 31 30 30 29 27 26 24 24 27 28 29 30 32 34 37 39 39 42 42 38 42 44 44 42 41 38 36 32 29 24 24 33 23 27 31 39 36 30 29 34
33 35 34 32 32 33 32 32 31 31 28 26 26 27 28 29 29 33 36 36 37 39 40 42 44 43 42 41 38 36 35 32 28 23 28 31 33 30 27 30 28 31 33
36 34 34 35 35 35 33 28 28 28 30 29 28 25 26 27 27 29 31 34 35 37 38 39 42 44 44 43 42 39 37 34 31 29 34 26 33 37 35 34 22 31 37
36 36 37 36 35 33 32 31 30 28 29 31 33 32 30 29 27 27 30 33 34 36 37 38 40 42 44 46 45 42 39 37 36 34 32 23 32 37 32 34 28 28 27
38 38 37 35 34 31 27 27 25 25 26 27 30 29 29 29 30 28 29 31 32 33 35 37 40 41 43 44 45 44 41 40 32 38 44 40 46 40 33 34 33 26 24
35 34 34 32 26 23 21 20 21 21 22 25 29 28 26 26 27 28 28 28 28 30 31 34 35 38 40 40 41 43 44 43 46 38 39 38 35 26 22 26 32 24 27
32 29 26 20 20 20 19 17 18 19 21 21 20 20 21 23 23 23 25 25 26 25 23 25 30 33 34 35 37 41 42 41 35 30 40 37 36 31 25 24 21 22 23
25 18 15 13 14 14 11 9 7 7 9 15 16 14 14 16 16 17 19 19 20 21 22 24 26 28 28 30 33 32 35 39 36 33 45 37 26 24 19 19 18 21 13
14 11 8 6 8 8 8 9 7 2 6 9 10 11 13 15 19 19 19 18 19 20 21 21 22 23 24 24 25 29 35 35 32 30 37 35 25 17 19 15 17 8 1
9 7 5 7 8 5 5 6 7 6 6 10 12 15 17 17 17 18 18 19 19 20 20 22 21 24 24 22 21 28 32 31 32 32 23 28 22 20 15 14 9 7 2
6 5 3 5 4 2 3 4 5 5 6 8 11 14 15 16 17 19 18 19 20 22 22 23 25 23 23 24 25 21 23 34 14 20 21 20 22 16 14 12 5 2 5
4 2 3 3 2 1 3 4 3 4 6 9 10 12 13 16 17 16 17 20 24 25 26 20 24 23 20 14 21 21 23 20 11 16 25 21 15 15 14 5 11 4 3
1 0 2 3 3 3 1 3 3 9 8 7 11 12 14 15 16 13 16 18 23 25 30 23 22 18 18 21 19 22 25 21 17 21 23 18 19 17 17 8 10 11 12
1 3 3 4 5 5 3 3 6 7 9 9 10 12 16 15 13 14 15 18 21 25 30 28 22 23 18 12 18 16 20 23 20 20 19 18 16 13 13 11 11 14 7
3 8 4 5 5 3 1 2 5 4 8 10 9 12 16 14 12 14 16 17 23 25 24 18 24 15 18 15 18 20 24 25 24 22 20 18 15 16 13 13 12 7 4
4 11 9 6 4 3 1 6 3 4 6 9 9 11 14 18 15 14 11 17 16 14 18 25 20 24 25 17 19 21 24 23 24 22 19 19 17 16 13 8 3 6 8
7 12 14 5 7 7 6 5 4 7 12 10 9 9 18 19 16 13 13 2 11 18 25 25 18 17 16 19 17 18 19 21 20 17 17 15 13 8 7 5 5 6 7
7 11 11 5 11 11 8 5 5 11 19 16 12 9 15 16 18 13 14 17 15 20 19 20 19 20 18 20 16 14 16 15 17 13 13 10 9 9 6 7 6 8 11
6 8 9 9 13 12 9 5 6 12 16 12 10 11 13 10 13 15 19 15 17 21 22 22 17 12 15 15 14 14 13 13 13 11 9 8 7 5 6 6 8 12 16
5 8 8 10 13 12 10 6 7 10 14 16 17 12 13 13 13 11 13 18 19 20 21 20 14 14 14 13 11 11 12 10 10 9 9 7 6 6 8 10 13 17 19
6 9 10 10 12 13 11 9 9 10 11 13 18 16 16 14 11 9 8 10 13 14 13 14 18 13 11 4 7 10 13 11 10 8 5 5 6 8 12 15 18 21 22
5 8 11 11 12 15 13 10 10 8 10 15 17 19 15 14 13 12 13 14 8 10 13 14 16 13 11 12 12 12 9 8 6 4 5 7 9 12 16 20 23 23 26
11 11 12 13 13 14 15 12 11 9 9 12 15 16 17 15 15 15 15 14 13 15 15 14 14 11 10 12 9 8 7 4 2 5 8 12 15 19 22 24 26 28 31
Wind_Direction
305 303 300 299 296 290 285 279 278 270 265 265 255 252 249 245 243 243 242 244 246 245 240 238 239 241 239 241 245 248 247 245 246 244 247 257 262 255 248 260 262 277 278
303 299 303 299 293 286 283 277 272 269 264 262 255 250 248 244 243 240 244 244 244 245 239 237 238 238 239 239 242 246 245 243 243 245 245 249 246 239 250 252 258 265 278
298 298 304 300 295 292 288 279 276 272 269 261 255 251 252 247 244 243 243 244 243 240 238 234 234 234 238 238 239 242 240 239 238 239 249 231 242 244 249 253 259 272 271
299 299 300 299 296 292 288 283 276 272 271 258 255 255 255 248 243 239 240 242 238 240 236 232 232 234 235 236 235 235 235 236 236 235 221 246 240 237 248 259 264 274 276
300 299 297 299 295 291 288 283 272 266 264 257 253 256 252 249 243 239 238 237 235 236 234 232 231 231 231 232 233 233 232 234 235 239 216 244 236 228 243 249 255 273 280
303 300 299 299 295 292 289 282 273 267 261 256 251 252 255 247 244 242 238 235 235 233 233 233 233 232 229 230 231 231 231 232 233 228 246 231 235 240 236 245 275 281 274
303 300 302 297 295 291 285 279 273 265 259 255 253 250 247 243 239 240 241 238 234 233 233 234 234 233 232 231 231 230 231 231 234 225 201 228 229 242 241 253 266 279 285
300 298 299 297 294 291 285 280 271 263 257 256 250 246 240 239 241 243 239 239 235 233 232 232 233 232 232 230 229 228 228 227 230 233 227 222 235 243 250 253 262 279 271
300 302 299 298 299 295 290 283 275 263 251 242 237 231 235 237 238 240 239 236 230 229 229 230 230 231 230 228 227 226 227 226 230 239 229 226 223 239 241 257 261 275 257
307 302 302 303 305 301 296 285 272 260 247 242 241 240 241 239 235 237 231 226 228 226 224 223 223 224 224 219 222 223 228 229 234 238 240 215 227 235 244 258 251 255 265
307 306 311 323 328 330 318 299 273 258 230 222 225 219 219 218 219 216 214 218 223 220 212 212 215 217 217 215 218 222 228 230 235 239 229 232 214 223 232 258 251 258 253
317 320 331 319 333 345 8 20 25 61 184 172 179 199 188 185 186 191 197 205 209 210 211 203 199 200 202 206 215 216 221 226 237 244 234 216 225 222 246 233 233 217 162
324 328 328 290 302 331 357 22 38 73 135 160 157 165 174 180 193 195 201 200 191 193 188 185 174 176 183 189 205 217 223 230 243 227 206 205 222 233 241 217 177 107 71
337 325 315 286 272 328 4 35 63 87 116 149 169 180 181 187 192 193 191 181 177 178 175 170 168 174 188 196 197 200 206 223 194 207 208 208 221 233 198 169 164 117 232
331 357 321 278 219 112 94 81 91 137 155 149 158 173 175 179 179 183 182 180 179 171 172 179 173 180 191 203 228 222 189 181 214 194 187 210 217 182 171 181 218 267 233
325 173 304 243 167 144 88 344 50 17 65 156 155 168 173 172 175 175 191 192 186 182 172 170 170 171 183 208 204 188 208 201 188 180 201 208 188 173 174 174 207 230 240
183 147 191 217 156 140 109 38 32 35 76 107 162 166 175 180 182 190 194 194 194 192 195 167 179 185 192 183 201 184 190 186 187 197 190 175 167 180 186 216 246 217 200
164 156 161 173 151 120 90 74 50 49 36 106 139 167 172 173 176 177 178 187 208 195 164 163 171 180 172 181 190 192 175 176 189 181 181 168 179 187 209 237 205 177 221
149 171 156 158 169 119 187 98 70 355 69 92 110 155 167 176 174 172 168 212 213 202 205 179 162 153 187 164 165 165 171 167 172 183 182 186 196 215 207 182 145 217 234
138 167 161 160 149 132 107 119 45 67 89 98 112 135 155 164 170 178 180 136 128 137 145 145 147 142 147 141 142 141 157 167 167 174 185 193 215 191 144 167 223 250 276
139 168 179 168 148 144 131 135 98 82 71 92 87 119 146 154 164 144 114 105 122 136 145 153 155 124 113 127 132 133 135 161 182 192 198 195 173 149 169 215 252 275 277
138 155 167 175 164 148 131 108 52 72 79 115 114 130 150 150 145 126 114 109 122 124 147 153 146 144 128 118 110 123 144 159 172 188 183 151 161 189 224 256 265 273 286
155 150 159 178 169 159 140 126 81 64 73 79 98 114 134 144 111 113 116 111 103 121 123 150 158 136 129 109 112 130 137 147 159 150 153 168 193 225 247 260 275 289 298
198 174 155 164 165 170 149 148 106 74 68 74 83 113 128 148 131 118 119 125 100 112 119 134 156 151 151 121 119 127 131 145 153 161 177 214 234 247 264 281 299 304 303
93 136 151 160 158 171 164 151 124 96 79 88 97 108 121 138 141 110 117 143 144 143 137 138 162 168 155 149 140 140 144 153 158 188 232 252 268 284 296 302 308 305 305
85 122 139 149 146 156 163 157 143 130 109 102 100 106 108 122 131 123 112 103 123 138 134 126 142 157 143 143 134 144 160 172 219 267 281 289 296 302 308 309 307 306 308
Height
5771 5767 5765 5761 5756 5754 5752 5752 5750 5750 5751 5750 5751 5753 5755 5758 5761 5765 5768 5773 5776 5780 5784 5789 5794 5799 5804 5809 5812 5816 5820 5825 5827 5832 5835 5838 5841 5843 5845 5846 5846 5846 5847
5765 5762 5758 5755 5751 5747 5745 5744 5743 5743 5744 5744 5745 5746 5748 5751 5753 5759 5760 5766 5768 5772 5776 5781 5787 5792 5797 5803 5806 5810 5815 5820 5823 5828 5831 5835 5837 5840 5841 5841 5842 5842 5842
5760 5756 5751 5748 5745 5741 5738 5735 5735 5735 5736 5736 5737 5739 5740 5743 5746 5749 5753 5757 5761 5765 5769 5774 5780 5785 5790 5796 5801 5805 5810 5815 5820 5823 5826 5829 5833 5834 5836 5835 5838 5839 5840
5754 5749 5746 5742 5738 5735 5733 5731 5729 5728 5728 5729 5730 5732 5733 5735 5738 5742 5745 5749 5754 5758 5762 5768 5773 5778 5783 5789 5795 5801 5805 5811 5816 5819 5822 5823 5828 5830 5829 5831 5834 5835 5835
5748 5743 5739 5735 5732 5729 5726 5724 5722 5721 5722 5722 5724 5725 5726 5728 5731 5734 5738 5742 5746 5751 5756 5761 5766 5771 5777 5783 5789 5795 5800 5806 5811 5814 5812 5821 5823 5823 5826 5828 5830 5831 5832
5740 5736 5731 5728 5724 5721 5717 5715 5713 5713 5713 5714 5716 5718 5719 5722 5725 5728 5732 5736 5740 5744 5748 5754 5759 5764 5770 5777 5783 5789 5795 5801 5806 5811 5812 5816 5816 5819 5822 5825 5826 5827 5827
5733 5729 5724 5719 5716 5711 5708 5705 5704 5703 5704 5705 5707 5710 5712 5715 5718 5721 5724 5729 5733 5737 5742 5747 5752 5757 5763 5770 5776 5782 5789 5795 5801 5805 5807 5806 5808 5814 5820 5822 5823 5823 5823
5727 5721 5716 5711 5706 5702 5699 5696 5694 5694 5695 5696 5699 5702 5705 5710 5713 5715 5719 5722 5726 5731 5736 5741 5746 5752 5757 5763 5769 5776 5784 5788 5794 5799 5803 5805 5805 5812 5816 5818 5819 5819 5819
5719 5714 5708 5703 5699 5695 5691 5688 5686 5686 5688 5690 5691 5695 5699 5702 5706 5709 5713 5717 5721 5726 5730 5735 5740 5745 5751 5757 5764 5771 5778 5784 5788 5796 5800 5800 5802 5808 5812 5815 5816 5813 5813
5713 5707 5702 5698 5693 5688 5684 5682 5680 5679 5681 5683 5686 5690 5694 5697 5701 5705 5709 5713 5716 5720 5725 5729 5734 5738 5744 5751 5758 5766 5772 5779 5784 5789 5791 5795 5799 5803 5809 5810 5809 5809 5808
5707 5703 5699 5694 5690 5685 5682 5680 5678 5677 5676 5678 5682 5687 5690 5694 5698 5702 5706 5710 5714 5717 5720 5725 5730 5735 5741 5748 5756 5763 5769 5775 5780 5785 5790 5793 5797 5799 5802 5804 5805 5806 5806
5704 5700 5697 5694 5691 5687 5683 5680 5677 5675 5676 5678 5682 5685 5689 5693 5696 5701 5704 5708 5712 5714 5719 5723 5728 5734 5740 5747 5753 5759 5765 5771 5775 5780 5783 5789 5794 5796 5799 5800 5802 5803 5804
5702 5699 5697 5694 5692 5689 5686 5683 5681 5679 5679 5681 5683 5685 5689 5693 5697 5700 5703 5706 5709 5713 5716 5721 5727 5733 5740 5745 5750 5757 5762 5769 5773 5776 5780 5786 5790 5793 5794 5796 5799 5801 5804
5701 5698 5697 5695 5693 5691 5688 5686 5684 5683 5683 5685 5686 5688 5691 5694 5698 5700 5701 5705 5708 5712 5717 5720 5726 5733 5738 5744 5749 5753 5759 5763 5769 5772 5778 5782 5787 5790 5791 5794 5798 5802 5803
5701 5698 5697 5696 5694 5693 5691 5689 5688 5688 5687 5687 5688 5690 5693 5695 5698 5700 5702 5705 5708 5711 5717 5721 5727 5733 5740 5744 5748 5751 5757 5762 5768 5773 5778 5781 5785 5788 5792 5796 5799 5802 5803
5701 5699 5698 5697 5696 5696 5694 5693 5691 5690 5689 5689 5690 5692 5695 5697 5700 5703 5705 5707 5709 5713 5718 5722 5728 5734 5739 5744 5747 5754 5758 5763 5768 5772 5777 5780 5784 5789 5792 5795 5798 5800 5800
5701 5699 5700 5699 5698 5698 5697 5696 5695 5693 5692 5693 5693 5694 5697 5699 5701 5704 5707 5709 5712 5714 5719 5722 5725 5733 5739 5743 5747 5752 5756 5762 5766 5772 5776 5781 5786 5789 5792 5794 5795 5796 5797
5701 5700 5701 5701 5700 5700 5699 5698 5697 5695 5695 5695 5695 5697 5699 5702 5705 5707 5710 5713 5713 5715 5720 5724 5728 5735 5740 5745 5749 5753 5758 5762 5769 5773 5778 5782 5786 5788 5791 5792 5793 5794 5797
5702 5702 5702 5703 5702 5702 5702 5700 5697 5698 5697 5697 5699 5699 5701 5705 5709 5711 5714 5715 5715 5719 5721 5725 5733 5737 5744 5748 5751 5755 5760 5765 5770 5775 5779 5782 5786 5789 5789 5790 5792 5795 5797
5703 5703 5703 5704 5704 5705 5705 5704 5702 5700 5700 5700 5701 5703 5705 5709 5712 5715 5717 5718 5718 5720 5725 5731 5736 5742 5745 5749 5754 5759 5764 5768 5773 5776 5780 5783 5786 5786 5787 5790 5793 5794 5793
5705 5704 5705 5706 5707 5707 5707 5706 5705 5704 5703 5705 5705 5707 5710 5712 5714 5718 5721 5722 5724 5727 5731 5736 5741 5745 5750 5754 5759 5762 5766 5771 5774 5777 5780 5782 5784 5785 5788 5789 5790 5790 5790
5706 5705 5706 5707 5709 5710 5710 5710 5708 5708 5708 5709 5710 5712 5714 5715 5718 5722 5725 5727 5729 5732 5736 5741 5746 5750 5754 5758 5762 5765 5768 5771 5774 5777 5779 5782 5783 5786 5788 5788 5788 5788 5788
5706 5706 5706 5708 5710 5712 5713 5714 5714 5712 5711 5713 5713 5715 5718 5720 5724 5726 5729 5732 5734 5738 5741 5746 5750 5754 5758 5761 5764 5767 5770 5773 5776 5779 5781 5782 5783 5785 5786 5785 5786 5787 5784
5705 5706 5707 5708 5712 5714 5716 5717 5718 5717 5717 5716 5718 5719 5722 5726 5729 5731 5733 5736 5739 5743 5747 5750 5754 5758 5761 5763 5766 5769 5772 5775 5778 5780 5781 5783 5784 5784 5785 5784 5781 5779 5779
5706 5706 5708 5710 5712 5715 5718 5720 5722 5722 5722 5722 5723 5724 5726 5730 5733 5736 5738 5741 5744 5747 5750 5754 5758 5759 5762 5765 5769 5772 5776 5777 5777 5779 5782 5781 5781 5780 5780 5779 5777 5775 5773
5708 5708 5710 5712 5714 5717 5720 5723 5725 5726 5727 5727 5728 5729 5731 5733 5736 5740 5742 5744 5746 5750 5754 5757 5761 5764 5765 5767 5771 5773 5774 5777 5778 5779 5779 5780 5779 5778 5776 5775 5773 5770 5766